Location: La Silve
(44.2414°N, 5.8889°E)
Time: 10:06:18
(UTC+00:00)

Cosmos 1238 Rocket - Pass Details

Date: 01 December 2020
Orbit: 375 x 1024 km, 83.0° (Epoch: 25 January)

Event Time Altitude Azimuth Distance (km) Brightness Sun altitude
Rises 17:15:58 0° 5° (N) 2,657 6.1 -13.4°
Reaches altitude 10° 17:18:13 10° 19° (NNE) 1,862 5.2 -13.8°
Maximum altitude 17:21:44 26° 77° (ENE) 1,237 4.0 -14.4°
Drops below altitude 10° 17:25:54 10° 135° (SE) 2,228 5.6 -15.1°
Sets 17:28:40 0° 146° (SSE) 3,237 6.6 -15.6°
